Weather History for KVTI - January, 2014

Change the Weather History Date:

Monday, January 13, 2014

  Actual Average Record
Temperature  
Mean Temperature 32 °F -  
Max Temperature 36 °F 26 °F 55 °F (1961)
Min Temperature 29 °F 10 °F -10 °F (2015)
Degree Days  
Heating Degree Days 32    
Moisture  
Dew Point 27 °F    
Average Humidity 76    
Maximum Humidity 84    
Minimum Humidity 59    
Precipitation  
Precipitation 0.00 in - - ()
Sea Level Pressure  
Sea Level Pressure 29.67 in    
Wind  
Wind Speed 8 mph (West)    
Max Wind Speed 22 mph    
Max Gust Speed 34 mph    
Visibility 10 miles    
Events      
Averages and records for this station are not official NWS values.
T = Trace of Precipitation, MM = Missing Value Source: NWS Daily Summary

Daily Weather History Graph

Daily Weather History Graph

Search for Another Location

Airport or City:

Trip Planner

Search our weather history database for the weather conditions in past years. The results will help you decide how hot, cold, wet, or windy it might be!

Date:

Astronomy

Jan. 13, 2014 Rise Set
Actual Time 7:35 AM CST 4:58 PM CST
Civil Twilight 7:03 AM CST 5:30 PM CST
Nautical Twilight 6:29 AM CST 6:04 PM CST
Astronomical Twilight 5:55 AM CST 6:38 PM CST
Moon 3:14 PM CST (1/13) 5:23 AM CST (1/13)
Length of Visible Light 10h 26m
Length of Day
9h 23m
Waxing Gibbous, 95% of the Moon is Illuminated
Jan 13
Waxing Gibbous
Jan 15
Full
Jan 23
Last Quarter
Jan 30
New
Feb 6
First Quarter

Hourly Weather History & Observations

Time (CST) Temp. Windchill Dew Point Humidity Pressure Visibility Wind Dir Wind Speed Gust Speed Precip Events Conditions
12:15 AM 35.6 °F 32.8 °F 31.1 °F 84% 29.57 in 10.0 mi WNW 3.5 mph - N/A   Scattered Clouds
12:35 AM 36.9 °F 34.3 °F 32.0 °F 83% 29.56 in 10.0 mi West 3.5 mph - N/A   Clear
12:55 AM 36.9 °F - 32.0 °F 83% 29.56 in 10.0 mi Calm Calm - N/A   Clear
1:15 AM 36.9 °F - 32.0 °F 83% 29.56 in 10.0 mi Calm Calm - N/A   Clear
1:35 AM 36.9 °F 34.3 °F 32.0 °F 83% 29.56 in 10.0 mi West 3.5 mph - N/A   Clear
1:55 AM 36.9 °F 33.1 °F 32.0 °F 83% 29.57 in 10.0 mi West 4.6 mph - N/A   Clear
2:15 AM 35.8 °F 31.9 °F 31.1 °F 83% 29.57 in 10.0 mi WNW 4.6 mph - N/A   Clear
2:35 AM 35.6 °F 32.8 °F 31.1 °F 84% 29.58 in 10.0 mi West 3.5 mph - N/A   Clear
2:55 AM 36.9 °F 34.3 °F 31.5 °F 81% 29.57 in 10.0 mi WNW 3.5 mph - N/A   Clear
3:15 AM 36.9 °F 33.1 °F 30.4 °F 77% 29.56 in 10.0 mi West 4.6 mph - N/A   Clear
3:35 AM 36.9 °F 30.7 °F 29.7 °F 75% 29.56 in 10.0 mi WNW 8.1 mph - N/A   Clear
3:55 AM 36.9 °F 34.3 °F 30.2 °F 77% 29.55 in 10.0 mi WNW 3.5 mph - N/A   Clear
4:15 AM 36.9 °F 33.1 °F 30.6 °F 78% 29.57 in 10.0 mi WNW 4.6 mph - N/A   Clear
4:35 AM 36.9 °F 33.1 °F 30.7 °F 79% 29.57 in 10.0 mi WNW 4.6 mph - N/A   Clear
4:55 AM 36.9 °F 31.4 °F 30.7 °F 79% 29.58 in 10.0 mi WNW 6.9 mph - N/A   Clear
5:15 AM 36.9 °F 31.4 °F 30.7 °F 79% 29.58 in 10.0 mi WNW 6.9 mph - N/A   Clear
5:35 AM 36.9 °F 31.4 °F 30.7 °F 79% 29.58 in 10.0 mi WNW 6.9 mph - N/A   Clear
5:55 AM 36.9 °F 30.7 °F 30.7 °F 79% 29.59 in 10.0 mi West 8.1 mph - N/A   Clear
6:15 AM 36.9 °F 30.7 °F 30.9 °F 79% 29.58 in 10.0 mi West 8.1 mph - N/A   Clear
6:35 AM 36.9 °F 29.6 °F 31.1 °F 80% 29.60 in 10.0 mi WNW 10.4 mph - N/A   Clear
6:55 AM 36.9 °F 29.1 °F 30.9 °F 79% 29.60 in 10.0 mi WNW 11.5 mph 17.3 mph N/A   Clear
7:15 AM 36.9 °F 28.7 °F 31.1 °F 80% 29.61 in 10.0 mi WNW 12.7 mph - N/A   Clear
7:35 AM 35.6 °F 27.1 °F 30.2 °F 81% 29.62 in 10.0 mi WNW 12.7 mph - N/A   Clear
7:55 AM 34.3 °F 26.5 °F 29.3 °F 82% 29.64 in 10.0 mi WNW 10.4 mph - N/A   Clear
8:15 AM 34.3 °F 26.5 °F 29.3 °F 82% 29.64 in 10.0 mi NW 10.4 mph 16.1 mph N/A   Clear
8:35 AM 34.3 °F 27.0 °F 29.3 °F 82% 29.64 in 10.0 mi NW 9.2 mph - N/A   Clear
8:55 AM 34.3 °F 25.9 °F 28.9 °F 81% 29.66 in 10.0 mi NW 11.5 mph - N/A   Scattered Clouds
9:15 AM 34.3 °F 23.9 °F 28.8 °F 80% 29.67 in 10.0 mi WNW 17.3 mph 23.0 mph N/A   Mostly Cloudy
9:35 AM 34.3 °F 24.2 °F 29.3 °F 82% 29.68 in 10.0 mi WNW 16.1 mph - N/A   Scattered Clouds
9:55 AM 34.3 °F 24.6 °F 27.7 °F 77% 29.68 in 10.0 mi NW 15.0 mph 24.2 mph N/A   Clear
10:15 AM 34.3 °F 22.6 °F 26.1 °F 72% 29.69 in 10.0 mi NW 21.9 mph 34.5 mph N/A   Clear
10:35 AM 34.3 °F 23.2 °F 23.9 °F 66% 29.70 in 10.0 mi NW 19.6 mph 32.2 mph N/A   Clear
10:55 AM 34.3 °F 22.9 °F 24.4 °F 67% 29.70 in 10.0 mi NW 20.7 mph 27.6 mph N/A   Clear
11:15 AM 34.3 °F 24.6 °F 23.7 °F 65% 29.71 in 10.0 mi NW 15.0 mph 25.3 mph N/A   Clear
11:35 AM 34.3 °F 23.9 °F 23.7 °F 65% 29.71 in 10.0 mi WNW 17.3 mph 21.9 mph N/A   Clear
11:55 AM 34.3 °F 24.2 °F 22.6 °F 62% 29.70 in 10.0 mi NW 16.1 mph 23.0 mph N/A   Clear
12:15 PM 34.3 °F 25.9 °F 23.0 °F 63% 29.70 in 10.0 mi NW 11.5 mph 21.9 mph N/A   Clear
12:35 PM 34.3 °F 24.6 °F 21.4 °F 59% 29.70 in 10.0 mi NNW 15.0 mph 23.0 mph N/A   Clear
12:55 PM 34.3 °F 25.5 °F 23.7 °F 65% 29.71 in 10.0 mi WNW 12.7 mph 20.7 mph N/A   Clear
1:15 PM 34.3 °F 23.5 °F 23.9 °F 66% 29.70 in 10.0 mi WNW 18.4 mph 25.3 mph N/A   Clear
1:35 PM 34.3 °F 25.9 °F 24.3 °F 67% 29.71 in 10.0 mi WNW 11.5 mph 20.7 mph N/A   Clear
1:55 PM 34.3 °F 24.6 °F 24.4 °F 67% 29.71 in 10.0 mi WNW 15.0 mph 19.6 mph N/A   Clear
2:15 PM 34.3 °F 25.9 °F 24.4 °F 67% 29.72 in 10.0 mi WNW 11.5 mph - N/A   Clear
2:35 PM 34.3 °F 25.5 °F 24.6 °F 68% 29.73 in 10.0 mi WNW 12.7 mph - N/A   Clear
2:55 PM 34.3 °F 24.2 °F 24.8 °F 68% 29.73 in 10.0 mi WNW 16.1 mph - N/A   Clear
3:15 PM 34.3 °F 25.5 °F 24.8 °F 68% 29.74 in 10.0 mi WNW 12.7 mph - N/A   Clear
3:35 PM 34.3 °F 26.5 °F 24.6 °F 68% 29.74 in 10.0 mi WNW 10.4 mph - N/A   Clear
3:55 PM 34.3 °F 29.2 °F 25.2 °F 69% 29.74 in 10.0 mi WNW 5.8 mph - N/A   Clear
4:15 PM 34.3 °F 28.4 °F 25.5 °F 70% 29.75 in 10.0 mi WNW 6.9 mph - N/A   Clear
4:35 PM 34.3 °F 27.7 °F 25.7 °F 71% 29.75 in 10.0 mi WNW 8.1 mph - N/A   Clear
4:55 PM 34.2 °F 28.2 °F 26.6 °F 74% 29.76 in 10.0 mi West 6.9 mph - N/A   Clear
5:15 PM 32.0 °F 27.5 °F 24.8 °F 75% 29.76 in 10.0 mi West 4.6 mph - N/A   Clear
5:35 PM 32.0 °F 26.4 °F 25.7 °F 78% 29.77 in 10.0 mi West 5.8 mph - N/A   Clear
5:55 PM 31.8 °F 27.3 °F 25.5 °F 78% 29.76 in 10.0 mi SW 4.6 mph - N/A   Clear
6:15 PM 29.7 °F 23.7 °F 23.9 °F 79% 29.75 in 10.0 mi WSW 5.8 mph - N/A   Clear
6:35 PM 29.7 °F 23.7 °F 24.1 °F 80% 29.74 in 10.0 mi SW 5.8 mph - N/A   Clear
6:55 PM 29.7 °F 23.7 °F 24.4 °F 81% 29.74 in 10.0 mi SW 5.8 mph - N/A   Clear
7:15 PM 29.7 °F 22.8 °F 24.6 °F 81% 29.73 in 10.0 mi South 6.9 mph - N/A   Clear
7:35 PM 29.7 °F 22.8 °F 24.6 °F 81% 29.74 in 10.0 mi SSW 6.9 mph - N/A   Clear
7:55 PM 29.7 °F 23.7 °F 24.8 °F 82% 29.74 in 10.0 mi SSW 5.8 mph - N/A   Clear
8:15 PM 29.7 °F 23.7 °F 23.9 °F 79% 29.74 in 10.0 mi South 5.8 mph - N/A   Clear
8:35 PM 29.7 °F 24.7 °F 23.9 °F 79% 29.73 in 10.0 mi South 4.6 mph - N/A   Clear
8:55 PM 29.7 °F 24.7 °F 23.9 °F 79% 29.73 in 10.0 mi South 4.6 mph - N/A   Clear
9:15 PM 29.7 °F 22.8 °F 23.9 °F 79% 29.73 in 10.0 mi South 6.9 mph - N/A   Clear
9:35 PM 31.8 °F 24.6 °F 25.5 °F 78% 29.72 in 10.0 mi South 8.1 mph - N/A   Clear
9:55 PM 32.0 °F 24.8 °F 25.0 °F 75% 29.72 in 10.0 mi South 8.1 mph - N/A   Clear
10:15 PM 32.0 °F 25.6 °F 24.4 °F 74% 29.71 in 10.0 mi South 6.9 mph - N/A   Clear
10:35 PM 34.3 °F 26.5 °F 26.6 °F 73% 29.69 in 10.0 mi South 10.4 mph - N/A   Clear
10:55 PM 34.3 °F 25.9 °F 26.6 °F 73% 29.69 in 10.0 mi South 11.5 mph - N/A   Clear
11:15 PM 34.3 °F 26.5 °F 27.0 °F 74% 29.68 in 10.0 mi South 10.4 mph - N/A   Clear
11:35 PM 34.3 °F 25.9 °F 26.6 °F 73% 29.67 in 10.0 mi SSW 11.5 mph 16.1 mph N/A   Clear
11:55 PM 34.3 °F 23.9 °F 26.4 °F 73% 29.66 in 10.0 mi SSW 17.3 mph 21.9 mph N/A   Clear